This demonstration page uses our WeatherBlox Daily Observations layout. Learn more.

Left ArrowRight Arrow

Hourly Observations for August 1, 2022

Temp ( °F °C ) Dew Point ( °F °C ) Humidity (%) Winds ( mph kmh ) Pressure ( in mb ) Visibility ( mi km ) Precip ( " mm )
12:01 am 00:01 Clear 81 27 73 23 79 79 Calm 29.87 1011 10 16 0.00 0.00
12:56 am 00:56 Clear 78 25.5 73 22.6 84 84 Calm 29.92 1013 10 16 0.00 0.00
1:56 am 01:56 Clear 78 25.5 72 22.4 83 83 NW 3 6 29.93 1014 10 16 0.00 0.00
2:56 am 02:56 Clear 78 25.3 70 21.2 78 78 NNW 3 6 29.93 1014 10 16 0.00 0.00
3:56 am 03:56 Clear 77 25 68 20 74 74 N 3 6 29.94 1014 10 16 0.00 0.00
4:56 am 04:56 Clear 76 24.4 67 19.2 73 73 Calm 29.96 1015 10 16 0.00 0.00
5:56 am 05:56 Partly Cloudy 73 22.8 66 18.7 78 78 Calm 29.96 1015 10 16 0.00 0.00
6:56 am 06:56 Sunny 71 21.9 65 18.1 79 79 Calm 29.96 1015 10 16 0.00 0.00
7:56 am 07:56 Partly Cloudy 74 23.3 64 17.5 70 70 Calm 29.97 1015 10 16 0.00 0.00
8:56 am 08:56 Partly Cloudy 77 24.8 63 17.3 63 63 E 5 7 29.97 1015 10 16 0.00 0.00
9:56 am 09:56 Mostly Sunny 81 27 62 16.9 54 54 Calm 29.97 1015 10 16 0.00 0.00
10:56 am 10:56 Mostly Cloudy 83 28.4 64 17.9 53 53 ENE 5 7 29.98 1015 10 16 0.00 0.00
11:56 am 11:56 Mostly Cloudy 86 30.2 65 18.6 50 50 NNE 7 11 29.93 1013 10 16 0.00 0.00
12:56 pm 12:56 Mostly Sunny 88 30.9 64 17.9 46 46 Calm 29.96 1015 10 16 0.00 0.00
1:56 pm 13:56 Mostly Sunny 90 32.2 66 19.1 46 46 E 6 9 29.94 1014 10 16 0.00 0.00
2:56 pm 14:56 Mostly Sunny 94 34.2 68 20.2 44 44 SSE 6 9 29.92 1013 10 16 0.00 0.00
3:56 pm 15:56 Sunny 94 34.2 71 21.6 48 48 SSW 6 9 29.91 1013 10 16 0.00 0.00
4:56 pm 16:56 Sunny 94 34.6 72 22.3 49 49 Calm 29.90 1013 10 16 0.00 0.00
5:56 pm 17:56 Sunny 95 34.8 73 22.8 50 50 SE 7 11 29.88 1012 10 16 0.00 0.00
6:56 pm 18:56 Mostly Sunny 93 33.8 75 23.7 56 56 ESE 7 11 29.86 1011 10 16 0.00 0.00
7:56 pm 19:56 Sunny 91 32.9 75 23.8 59 59 SSE 13 20 29.85 1011 10 16 0.00 0.00
8:56 pm 20:56 Partly Cloudy 88 30.9 74 23.2 64 64 S 9 15 29.86 1011 10 16 0.00 0.00
9:56 pm 21:56 Clear 84 28.7 74 23.6 74 74 SE 5 7 29.87 1012 10 16 0.00 0.00
10:56 pm 22:56 Clear 82 27.5 74 23.5 79 79 Calm 29.87 1012 10 16 0.00 0.00
11:56 pm 23:56 Mostly Cloudy 81 27.2 74 23.6 81 81 Calm 29.87 1012 10 16 0.00 0.00

Powered by AerisWeather